Columbia, SC

1:23 PM EST on February 11, 2016 (GMT -0500)
Spring Valley | | Change Station
CLOSE
Current Station
Personal Weather Station
Location: Columbia, SC
Elevation: 361 ft
Nearby Weather Stations

Elev 361 ft 34.11 °N, 80.92 °W | Updated 8 seconds ago

Clear
Clear
45.1 °F
Feels Like 45 °F
N
0.0
Wind Variable Wind from WSW
Gusts 0.0 mph

Today
High -- | Low -- °F
--% Chance of Precip.
Yesterday
High -- | Low -- °F
Precip. -- in
Pressure 30.21 in
Visibility 10.0 miles
Clouds Clear
Windchill 45 °F
Dew Point 20 °F
Humidity 36%
Rainfall 0.00 in
Snow Depth Not available.
7:12 AM 6:03 PM
Waxing Crescent, 13% visible
METAR KCUB 111753Z AUTO VRB03KT 10SM CLR 09/M08 A3020 RMK AO2 SLP228 T00891078 10089 21017 58024
Pressure 30.21 in
Visibility 10.0 miles
Clouds Clear
Windchill 45 °F
Dew Point 20 °F
Humidity 36%
Rainfall 0.00 in
Snow Depth Not available.
7:12 AM 6:03 PM
Waxing Crescent, 13% visible
METAR KCUB 111753Z AUTO VRB03KT 10SM CLR 09/M08 A3020 RMK AO2 SLP228 T00891078 10089 21017 58024

10-Day Weather Forecast

Almanac

Astronomy

Feb. 11, 2016 Rise Set
Actual Time
Civil Twilight
Nautical Twilight
Astronomical Twilight
Moon
Length of Visible Light
Length of Day
Tomorrow will be .
, % of the Moon is Illuminated

Today's Extremes

State Highs State Lows

Community

WunderPhotos

Upload Photos

1,892,122 photos uploaded!

WunderBlog® & News

Nearby

Air Quality

  Air Quality AQ Index Pollutant
Not available.

Snow Depth

Station Depth Elevation

Earthquake Activity

City Distance Mag. Time & Date
Minimum magnitude displayed is 2.5.

Coastal Water Temperatures

Place Temperature

Stations

Nearby Weather Stations

Station Location Temp. Windchill Dew Point Humidity Wind Precip. Elev Updated Type
                   

Watches & Warnings

There are currently no watches in effect.